Miscellaneous Local Product
Issued by NWS Hastings, NE

Home | Current Version | Previous Version | Graphics & Text | Print | Product List | Glossary On
Versions: 1 2 3 4 5 6 7 8 9 10 11 12 13 14 15 16 17 18 19 20 21 22 23 24 25 26 27 28 29 30 31 32 33 34 35 36 37 38 39 40 41 42 43 44 45 46 47 48 49 50
000
AXUS43 KGID 272302
MISGRI

GID CWA HOURLY WEATHER ROUNDUP
NATIONAL WEATHER SERVICE HASTINGS NE
600 PM CDT THU APR 27 2017

NOTE: "FAIR" INDICATES FEW OR NO CLOUDS BELOW 12,000 FEET WITH NO
SIGNIFICANT WEATHER AND/OR OBSTRUCTIONS TO VISIBILITY.

...SOUTH CENTRAL NEBRASKA...

CITY           SKY/WX    TMP DP  RH WIND       PRES   REMARKS
GRAND ISLAND   CLOUDY    51  42  71 E6        29.67R
HASTINGS       CLOUDY    56  34  43 SE15G21   29.66S
KEARNEY        PTSUNNY   55  36  47 SE20G25   29.64F
ORD            CLOUDY    52  34  50 E8        29.64S
YORK           LGT RAIN  54  36  50 S7        29.69R
AURORA         CLOUDY    55  34  45 SE7       29.67S
LEXINGTON      LGT RAIN  53  37  54 E13G22    29.61S
HOLDREGE       CLOUDY    51  37  59 SE22      29.62S
HEBRON         RAIN      53  41  64 S17       29.69R

...NEBRASKA PANHANDLE...

CITY           SKY/WX    TMP DP  RH WIND       PRES   REMARKS
CHADRON        LGT RAIN  46  39  76 SE12      29.59R
ALLIANCE       LGT RAIN  44  40  85 S17       29.57R
SCOTTSBLUFF    LGT RAIN  44  40  85 N8        29.55F FOG
SIDNEY         LGT RAIN  47  41  80 N8        29.55R

...WESTERN AND NORTH CENTRAL NEBRASKA...

CITY           SKY/WX    TMP DP  RH WIND       PRES   REMARKS
VALENTINE      PTSUNNY   54  29  38 E8        29.63R
AINSWORTH      MOSUNNY   54  35  49 E9G17     29.64R
ONEILL         SUNNY     53  30  41 CALM      29.67S
BROKEN BOW     CLOUDY    51  35  54 SE14G23   29.63R
IMPERIAL       LGT RAIN  47  40  76 E17G25    29.53S
NORTH PLATTE   CLOUDY    51  38  60 E17       29.60R
MCCOOK         LGT RAIN  51  43  74 SE14      29.56S

...EASTERN NEBRASKA...

CITY           SKY/WX    TMP DP  RH WIND       PRES   REMARKS
NORFOLK        SUNNY     52  33  48 S3        29.67S
SO SIOUX CITY  SUNNY     54  35  48 NW14      29.70R
TEKAMAH        MOSUNNY   57  33  40 W9        29.69R
COLUMBUS       MOSUNNY   55  32  41 CALM      29.69R
ALBION         PTSUNNY   55  36  47 SE5       29.67S
OMAHA EPPLEY   PTSUNNY   58  32  37 W6        29.70R
OFFUTT AFB     MOSUNNY   58  33  39 NW3       29.70R
MILLARD        MOSUNNY   58  35  40 CALM      29.70R
LINCOLN        CLOUDY    57  33  40 S8        29.71R
NEBRASKA CITY  CLOUDY    56  28  33 NW3       29.71R
BEATRICE       CLOUDY    58  35  42 S3        29.70S
FALLS CITY     MOSUNNY   59  39  47 W5        29.70S

...NORTHERN KANSAS...

CITY           SKY/WX    TMP DP  RH WIND       PRES   REMARKS
GOODLAND       PTSUNNY   57  40  52 E29G39    29.43S
HILL CITY      CLOUDY    51  45  79 E15       29.58F
NORTON         CLOUDY    50  37  62 E21G26    29.58S
PHILLIPSBURG   DRIZZLE   50  45  81 E18G26    29.63R
SMITH CENTER   LGT RAIN  46  43  87 E14G21    29.65S
HAYS           CLOUDY    54  46  74 E20G28    29.58F
RUSSELL        LGT RAIN  51  47  86 E14       29.59F
CONCORDIA      LGT RAIN  50  46  86 E6        29.68S
SALINA         CLOUDY    58  43  57 E10       29.65F
TOPEKA         CLOUDY    59  39  47 CALM      29.72S



USA.gov is the U.S. government's official web portal to all federal, state and local government web resources and services.